カタログに戻る

COSMOS 252 DEB *

運用中LEO
NORAD 5322·DEBRIS·🇷🇺 Russia

打ち上げ Nov 1, 1968 から Baikonur Cosmodrome

Loading…

次のパス (今後24時間)

TLE

最新Source: Space-Track

元期: Sep 14, 2026, 09:32 UTC

1 05322U 68097CJ  26257.39764567  .00001834  00000-0  12924-2 0  9997
2 05322  61.3210 198.6287 0693764 346.8164  11.5474 13.21495830725625

AllMySatでCOSMOS 252 DEB *をリアルタイム追跡

Download on the App Store